Dewpoint
33 28 29 31 29 26 18 16 14 15 15 14 14 14 13 14 14 13 13 12 12 12 12 13 12 25 50 52 59 64 63 63 61 60 60 60 60 61 62 62 62 62 62 62
30 26 26 32 31 26 24 21 19 20 20 18 16 14 14 14 14 13 12 12 12 12 11 11 12 12 18 39 50 60 64 64 62 61 60 60 60 60 60 61 61 61 62 62
26 19 29 30 30 28 26 23 22 20 19 19 15 12 11 11 13 13 13 13 12 11 10 10 11 12 20 24 30 52 63 64 63 62 61 62 62 62 61 61 61 61 61 61
28 23 26 26 28 29 26 26 24 22 19 16 12 3 2 1 1 6 7 9 10 9 10 11 11 11 14 24 45 48 61 64 64 63 63 61 61 61 61 61 62 62 63 62
27 26 23 25 30 29 26 26 24 22 20 17 16 13 10 9 6 7 11 10 12 11 10 10 10 11 12 15 29 57 62 64 65 64 63 62 62 63 63 64 63 63 64 64
35 34 28 27 30 32 29 26 24 21 20 16 17 14 6 6 10 11 12 12 12 11 11 9 10 10 9 15 19 44 61 64 65 65 65 64 63 63 63 64 64 64 64 64
34 34 35 32 32 32 30 24 22 19 17 16 15 14 11 10 11 11 11 12 11 12 11 11 10 13 21 25 32 38 58 62 65 66 65 65 64 64 64 63 64 64 64 64
27 25 31 32 29 31 30 28 23 14 12 14 16 13 11 13 14 16 16 14 13 12 13 13 14 18 27 35 44 43 56 61 65 66 66 66 66 65 65 64 64 64 64 64
27 29 28 29 28 26 24 27 29 24 22 18 9 12 15 16 14 16 17 18 17 15 16 16 18 22 28 37 44 49 56 61 64 65 65 66 66 65 65 65 65 65 65 64
30 25 30 28 28 26 25 25 20 24 22 18 18 15 9 10 12 13 16 17 18 19 19 23 23 25 35 45 52 55 57 60 62 64 64 64 65 65 65 64 64 64 64 64
31 31 27 31 28 26 27 24 24 22 23 20 15 13 21 18 17 15 13 14 18 20 20 26 35 41 45 54 55 56 57 58 59 59 60 61 62 63 63 64 63 64 63 63
27 31 28 28 29 31 27 26 25 23 22 23 19 15 20 21 21 22 21 21 21 19 23 37 44 54 55 55 56 57 58 59 59 59 59 59 60 61 61 62 62 62 63 63
30 31 26 25 29 32 32 31 28 25 23 22 22 21 23 21 20 23 23 23 22 22 25 40 51 55 56 56 57 57 58 59 61 62 62 62 62 62 62 62 62 62 62 62
34 29 23 21 26 30 30 31 31 28 25 23 22 23 24 24 24 24 24 24 23 22 22 33 49 56 57 57 57 57 58 59 59 61 61 61 62 62 62 61 61 61 62 61
34 29 31 30 30 32 32 31 32 32 29 28 29 25 23 25 28 26 26 25 25 24 23 25 37 51 57 57 57 57 57 58 59 58 58 58 59 60 60 60 60 60 60 60
30 29 32 29 31 32 29 32 34 35 33 31 35 34 33 33 32 31 30 28 25 25 25 26 26 40 54 57 57 57 57 57 59 59 58 58 59 60 59 59 59 58 58 57
31 29 26 22 27 29 26 28 30 33 33 33 31 32 32 31 31 32 33 33 32 30 28 27 28 31 45 54 57 57 57 57 58 58 58 58 58 58 58 57 56 55 54 53
29 29 27 23 24 17 21 24 27 28 28 33 34 32 28 29 28 29 32 33 34 34 33 31 30 31 40 51 56 57 57 57 57 57 57 57 58 57 56 56 54 52 52 51
32 29 25 22 20 19 22 24 29 29 28 32 28 26 26 24 27 29 32 34 33 33 33 33 32 32 35 46 55 57 56 57 57 56 57 56 57 55 54 53 52 51 49 48
31 31 26 23 19 15 15 20 23 28 22 26 29 28 27 27 26 24 26 28 27 33 32 28 31 32 37 41 54 56 55 56 56 56 57 56 56 54 53 52 50 49 48 46
26 27 23 22 20 21 21 20 22 21 18 21 23 26 30 30 27 24 26 29 29 27 24 27 29 33 34 43 54 55 55 55 56 56 56 55 54 54 51 49 47 45 44 43
19 22 23 25 22 18 24 22 19 20 21 21 23 25 26 25 23 25 29 28 25 25 28 33 34 33 34 40 52 53 54 54 55 55 54 53 52 48 47 46 44 43 42 40
21 21 20 22 20 23 22 21 23 23 22 22 24 23 24 25 24 24 25 27 28 30 33 36 35 33 33 42 48 50 52 53 53 53 50 48 47 47 45 44 43 41 40 39
31 30 27 25 24 24 24 26 27 26 25 25 25 26 25 25 26 27 28 31 32 33 35 33 31 31 37 44 50 51 50 50 50 48 46 45 44 44 43 43 41 40 39 37
25 28 28 28 28 27 27 27 28 29 28 28 28 27 27 27 28 29 28 27 27 29 29 30 33 36 38 44 48 48 47 48 46 45 44 43 41 41 40 40 39 38 37 37
27 24 23 22 28 30 28 30 32 31 31 31 29 28 28 28 27 27 27 28 27 26 30 36 40 42 42 44 44 45 46 46 45 42 41 41 40 39 39 37 36 37 37 36
Wind_Speed
7 10 23 31 24 12 3 12 15 4 9 7 16 16 22 21 21 18 19 20 23 23 24 21 29 28 24 23 21 25 25 25 23 22 22 20 27 21 18 19 20 20 20 20
9 27 32 17 16 18 15 17 18 7 11 5 12 22 17 21 24 22 23 23 24 23 24 23 21 23 26 32 32 26 27 25 28 25 25 17 19 18 17 15 17 20 21 20
26 36 18 21 13 17 23 24 23 22 5 13 8 25 13 19 19 19 24 26 21 24 27 25 17 20 18 26 30 31 31 31 29 27 19 10 12 6 17 20 21 22 23 22
16 24 20 30 28 23 30 17 18 13 7 18 4 29 19 15 29 21 25 24 25 20 21 24 19 17 22 25 23 25 24 27 27 26 24 29 29 22 22 21 18 18 22 22
19 20 30 33 28 22 22 14 17 14 17 10 17 12 17 12 26 33 19 22 22 22 20 26 26 23 22 19 24 27 24 22 23 29 28 26 24 21 11 15 18 19 17 21
19 7 17 34 25 18 10 14 11 10 14 21 32 21 44 26 26 19 15 18 24 22 20 23 19 13 17 14 17 23 27 28 27 27 28 29 29 20 18 18 20 19 16 18
21 29 16 12 23 24 13 11 11 13 13 24 25 21 40 7 10 23 25 24 23 21 20 18 15 16 20 19 18 21 25 28 27 28 28 27 27 24 24 20 19 17 16 16
21 20 24 14 20 17 29 24 13 19 26 32 14 17 37 28 37 28 24 19 16 21 20 17 14 17 20 21 18 21 25 26 27 28 29 26 24 21 20 19 17 18 18 19
11 16 6 20 21 21 14 30 32 14 11 10 15 9 17 11 17 23 24 22 26 22 22 22 19 21 24 25 23 24 24 23 25 27 23 24 22 21 20 19 18 17 17 15
10 23 11 18 22 27 31 17 19 23 31 35 11 14 20 19 26 20 17 20 21 18 16 18 22 25 22 23 20 20 22 25 25 24 23 21 20 19 17 17 20 19 17 15
5 11 13 3 18 24 23 30 22 12 28 33 38 35 8 17 13 21 26 24 11 14 15 15 19 21 21 14 17 20 22 23 24 23 21 19 19 18 16 17 17 17 15 15
9 3 19 26 23 10 20 35 36 32 21 18 36 35 6 16 19 13 21 16 16 14 12 14 16 17 14 15 17 21 21 22 20 19 18 18 17 15 15 14 13 12 13 12
0 7 11 15 19 23 20 18 13 28 30 31 25 29 31 37 36 24 19 27 18 14 11 10 11 12 15 14 16 18 19 20 17 17 18 16 15 15 14 13 12 12 12 12
10 6 14 17 9 8 12 21 28 22 26 30 37 29 33 18 17 18 22 21 22 20 19 13 11 13 12 12 13 16 16 15 15 17 16 17 17 16 15 16 16 14 12 11
14 10 10 20 20 18 20 27 23 14 31 25 21 23 38 22 19 17 19 23 20 19 19 18 14 13 14 15 16 15 18 18 17 17 19 19 18 18 17 17 16 14 13 12
4 5 7 23 14 12 19 19 18 18 19 8 11 19 29 22 14 16 17 19 23 26 20 16 17 16 16 17 18 17 18 18 16 17 19 18 21 21 19 16 15 16 17 14
5 6 7 26 9 10 13 18 14 7 8 19 13 15 26 33 20 17 18 19 22 22 23 22 20 21 19 20 24 26 19 13 15 15 13 13 17 20 18 18 17 16 16 19
17 18 12 22 9 24 16 16 21 24 23 30 26 34 33 31 22 20 21 22 22 21 24 22 18 21 20 19 20 19 22 26 23 17 16 16 15 15 17 18 18 16 16 20
31 23 14 15 20 20 13 4 11 14 25 23 20 24 33 32 23 19 16 20 24 23 26 23 20 21 21 20 23 21 21 24 23 24 23 21 20 20 19 19 19 18 19 20
26 27 21 10 15 21 26 17 27 13 31 14 28 33 32 27 23 27 9 14 19 16 15 24 23 24 21 24 14 20 22 23 28 28 30 25 24 24 24 21 21 17 18 21
8 13 29 26 20 13 19 15 15 21 28 37 31 31 29 31 27 28 8 15 19 22 27 25 23 23 24 19 16 22 18 25 31 23 22 23 24 23 22 21 19 21 20 21
18 12 14 15 15 19 24 12 21 33 36 32 22 33 33 33 32 24 24 21 23 26 25 23 20 21 21 17 19 23 25 31 19 19 20 21 22 22 22 24 20 21 23 23
22 24 12 13 12 18 21 24 20 26 28 30 23 27 26 24 24 26 28 19 22 24 23 22 20 24 25 17 21 23 29 18 21 23 22 22 21 22 23 26 24 21 20 23
5 7 9 12 26 34 36 23 17 18 25 30 20 22 26 31 28 26 25 21 18 20 22 20 22 26 28 19 21 26 18 21 24 24 22 23 25 22 19 18 20 23 21 20
13 6 7 13 29 16 30 29 19 9 18 22 20 24 26 26 30 24 24 27 21 20 21 20 22 25 31 16 19 16 20 24 25 27 25 24 23 24 22 17 16 19 14 19
9 13 11 17 8 11 30 24 29 32 28 25 23 22 24 24 28 30 28 28 23 22 21 23 26 25 24 13 15 16 20 25 27 26 25 24 24 22 23 25 22 21 24 21
Wind_Direction
186 199 217 217 209 222 157 218 233 246 253 270 250 250 254 260 265 249 245 260 270 268 263 241 237 233 214 216 203 199 192 194 181 188 188 197 207 203 207 209 206 200 200 197
206 226 226 227 215 231 239 244 248 273 271 272 284 273 257 265 260 253 250 247 247 261 270 261 239 239 215 209 209 206 202 188 190 194 203 204 204 214 213 208 208 203 200 197
208 229 221 219 212 218 233 234 242 244 301 285 299 289 255 254 257 252 249 251 249 251 257 258 239 237 219 210 208 207 202 194 193 195 186 177 165 163 198 211 210 206 200 199
229 237 236 223 228 208 237 221 239 230 225 254 175 274 266 246 255 247 244 241 244 247 249 249 235 219 228 221 204 208 205 197 192 184 186 195 199 201 214 211 212 205 199 201
217 218 219 234 230 213 240 221 226 212 226 254 257 280 266 209 244 252 250 242 247 250 248 244 233 226 229 237 212 205 201 199 192 188 192 195 203 208 191 191 195 198 196 202
255 294 228 230 229 224 229 235 230 221 217 234 241 219 267 242 240 253 256 241 247 247 244 242 243 244 251 248 227 213 201 200 189 190 191 193 202 200 193 192 194 195 197 202
256 256 266 292 223 221 223 184 219 228 210 228 234 208 240 262 233 233 250 252 235 237 237 236 238 237 246 243 235 218 205 202 193 188 194 197 201 201 204 195 192 185 191 200
231 253 222 218 224 213 215 212 201 218 222 239 208 216 239 228 250 261 268 263 257 260 261 259 254 251 250 249 234 213 203 201 189 189 195 197 199 204 206 198 193 198 201 207
234 238 211 206 223 217 210 219 228 264 285 274 231 238 262 239 229 247 255 254 257 254 262 272 282 279 271 253 239 214 198 196 188 193 189 195 196 197 198 196 196 204 207 209
260 261 223 215 217 224 221 222 234 235 243 249 246 234 231 227 230 240 252 252 261 257 263 283 297 302 278 247 227 201 195 195 188 186 189 189 188 195 196 192 200 204 208 205
250 250 245 282 222 220 214 224 232 240 222 230 249 244 224 253 252 229 235 244 266 287 291 301 319 308 278 236 203 190 189 185 187 186 184 190 198 200 197 201 206 207 200 194
261 248 255 245 253 250 228 214 219 228 237 234 239 245 222 236 259 269 272 285 277 269 274 293 312 290 253 229 205 191 182 176 176 174 171 181 182 181 188 198 199 192 199 191
193 192 252 257 267 263 249 255 248 236 239 237 237 247 243 258 268 266 275 289 295 286 286 274 276 268 248 228 201 187 181 171 167 164 167 168 170 174 178 178 179 177 184 195
346 240 228 254 255 294 284 229 246 237 237 239 240 251 259 256 259 272 281 273 277 282 287 271 257 239 230 209 200 185 185 174 169 171 176 184 185 185 183 184 184 182 186 193
189 252 227 249 261 280 271 281 270 287 245 239 245 246 255 255 275 296 296 302 301 287 287 266 267 249 228 207 189 203 194 188 178 181 187 192 189 183 188 187 180 178 184 186
286 269 258 266 260 250 273 275 289 261 284 263 231 257 271 273 269 294 306 315 309 311 311 297 290 274 235 220 215 208 204 193 186 194 194 182 175 176 182 176 176 176 169 161
275 268 257 270 276 300 274 246 232 225 291 293 212 239 260 275 268 274 278 281 288 296 305 313 306 291 268 232 214 210 202 183 197 203 205 190 175 173 175 165 165 168 159 143
235 236 238 265 264 262 246 235 232 231 227 215 220 265 255 262 274 258 251 257 269 279 283 282 282 285 272 253 230 214 189 187 190 195 195 201 187 179 170 164 163 156 147 140
213 219 235 241 245 267 269 242 204 211 249 223 234 243 256 262 269 260 251 255 259 264 271 273 275 274 276 254 228 203 194 188 188 197 199 194 187 177 170 168 160 150 141 134
209 214 212 215 238 251 263 232 229 225 255 216 215 235 245 260 270 275 208 247 267 279 288 297 296 297 283 270 225 198 198 196 199 197 199 187 184 177 171 164 156 145 144 134
175 205 219 234 243 253 259 239 216 217 246 250 235 241 239 244 244 260 226 260 275 282 287 289 288 279 273 264 210 214 202 209 218 200 185 180 180 172 158 147 148 139 135 128
227 207 209 225 235 250 235 245 215 229 238 255 234 231 235 243 254 260 257 253 269 276 282 281 281 284 279 253 210 216 208 219 195 183 177 167 162 150 148 145 141 138 136 131
247 226 239 209 227 239 243 221 229 235 245 256 237 237 242 248 254 261 264 253 251 261 271 276 281 288 286 255 226 222 228 190 174 166 162 154 147 149 151 148 145 139 142 142
254 304 249 254 250 251 264 275 256 248 248 254 242 239 241 251 251 252 262 261 259 266 265 268 279 281 278 258 226 222 191 165 158 155 151 144 140 138 139 141 146 143 146 144
268 304 270 284 290 294 271 272 305 287 246 253 253 244 239 239 257 253 260 273 273 263 266 271 271 272 273 244 224 191 164 155 154 149 146 142 140 138 129 122 133 129 121 140
230 261 247 270 318 296 285 322 312 312 298 289 288 269 257 252 252 261 268 271 278 275 265 261 265 264 261 209 185 171 162 157 152 147 143 145 137 134 129 120 104 91 116 115